This is the latest recevied weather packets stored in our database for station/object KI8L. If no packets are shown the sender has not sent any weather packets the latest 10 day(s).
| Time | Temp. | Humidity | Pressure | Rain* | Wind** | Luminosity | Snow |
|---|---|---|---|---|---|---|---|
| 1777298608 | 13.33° C | 83% | 1022 hPa | 0 mm | - | 387 W/m² | - |
| 1777298304 | 13.33° C | 83% | 1022 hPa | 0 mm | - | 382 W/m² | - |
| 1777298000 | 12.78° C | 84% | 1022.1 hPa | 0 mm | - | 390 W/m² | - |
| 1777297696 | 12.22° C | 86% | 1022 hPa | 0 mm | - | 363 W/m² | - |
| 1777297394 | 12.22° C | 86% | 1022 hPa | 0 mm | - | 334 W/m² | - |
| 1777297090 | 11.11° C | 89% | 1021.8 hPa | 0 mm | - | 277 W/m² | - |
| 1777296788 | 10.56° C | 88% | 1022 hPa | 0 mm | - | 278 W/m² | - |
| 1777296483 | 10.56° C | 88% | 1021.8 hPa | 0 mm | - | 193 W/m² | - |
| 1777296179 | 10.56° C | 90% | 1021.9 hPa | 0 mm | - | 97 W/m² | - |
| 1777295875 | 10° C | 90% | 1022.1 hPa | 0 mm | - | 82 W/m² | - |
| 1777295573 | 10° C | 91% | 1022.3 hPa | 0 mm | - | 74 W/m² | - |
| 1777295270 | 10° C | 91% | 1022.3 hPa | 0 mm | - | 79 W/m² | - |
| 1777294968 | 10° C | 90% | 1022.2 hPa | 0 mm | - | 89 W/m² | - |
| 1777294663 | 10° C | 91% | 1022.2 hPa | 0 mm | - | 101 W/m² | - |
| 1777294360 | 10° C | 94% | 1022.2 hPa | 0 mm | - | 115 W/m² | - |
| 1777294057 | 9.44° C | 92% | 1022.3 hPa | 0 mm | - | 118 W/m² | - |
| 1777293754 | 10° C | 90% | 1022.3 hPa | 0 mm | - | 109 W/m² | - |
| 1777293448 | 9.44° C | 92% | 1022.1 hPa | 0 mm | - | 99 W/m² | - |
| 1777293144 | 9.44° C | 92% | 1022.5 hPa | 0 mm | - | 92 W/m² | - |
| 1777292843 | 8.89° C | 93% | 1022.4 hPa | 0 mm | - | 85 W/m² | - |
| 1777292540 | 8.89° C | 93% | 1022.5 hPa | 0 mm | - | 80 W/m² | - |
| 1777292236 | 8.89° C | 92% | 1022.5 hPa | 0 mm | - | 76 W/m² | - |
| 1777291932 | 8.89° C | 95% | 1022.4 hPa | 0 mm | - | 73 W/m² | - |
| 1777291629 | 8.33° C | 94% | 1022.4 hPa | 0 mm | - | 68 W/m² | - |
| 1777291326 | 8.33° C | 94% | 1022.5 hPa | 0 mm | - | 63 W/m² | - |
* Rain latest hour (hover to see other rain measurements)
** Current wind speed in m/s (hover to see current wind gust speed)